Temperature
11 10 9 10 10 11 11 11 11 12 12 11 10 11 11 12 12 11 12 11 11 10 10 9 8 8 8 8 8 7 8 8 8 8 8 7 7 7 7 7 8 8 8 8
10 9 10 11 11 11 11 10 10 11 11 11 10 10 11 12 11 11 11 11 10 10 9 9 8 8 8 7 7 7 7 7 7 7 7 7 7 7 7 7 7 7 7 7
10 10 10 10 10 10 10 9 9 9 10 10 9 9 10 11 12 11 11 11 10 10 9 8 8 8 7 7 7 7 7 7 7 7 7 7 6 6 6 6 6 6 6 6
9 10 10 10 9 9 9 9 9 9 8 7 9 7 9 10 10 10 10 10 10 9 9 8 8 7 7 7 7 6 6 6 6 6 6 6 6 6 6 6 6 6 6 6
9 9 9 9 9 9 8 9 8 8 8 7 8 7 8 10 9 9 9 10 9 9 8 8 7 7 7 6 6 6 6 6 6 6 6 6 6 5 5 5 5 5 5 5
8 9 9 9 9 9 8 8 8 7 6 6 7 7 8 9 9 9 9 9 9 8 8 7 7 6 6 6 6 6 5 5 5 5 5 5 5 5 5 5 5 4 4 4
8 8 8 8 7 8 7 6 6 6 6 6 8 7 7 8 8 8 8 8 8 7 7 6 6 6 6 5 5 5 5 5 5 5 5 5 5 5 5 4 4 4 4 4
7 7 7 7 7 6 7 7 6 6 6 7 7 6 7 8 8 8 8 8 7 7 6 6 6 5 5 5 5 5 5 5 4 4 4 4 4 4 4 4 3 3 3 3
7 7 7 7 7 7 6 6 7 5 5 5 6 7 8 8 7 7 7 7 7 6 6 5 5 5 4 4 4 4 4 4 4 4 4 4 4 4 4 3 3 3 3 3
6 5 6 6 6 6 6 6 5 5 5 5 7 7 7 7 7 6 6 6 6 6 5 5 4 4 4 4 4 4 4 4 4 4 3 3 3 3 3 3 3 3 3 3
6 4 5 5 5 5 5 5 5 5 5 5 5 6 7 7 6 6 5 6 5 5 5 4 4 4 4 3 3 3 3 3 3 3 3 3 3 3 3 3 2 2 2 2
5 4 4 5 5 6 6 5 4 4 4 4 4 5 7 6 6 6 5 5 5 5 4 4 4 3 3 3 3 3 3 3 3 3 2 2 2 2 2 2 2 2 2 2
4 3 3 4 4 4 4 5 4 3 3 3 4 5 6 6 6 6 5 5 5 4 4 4 3 3 3 3 3 3 3 2 2 2 2 2 2 1 1 1 1 1 1 1
4 2 3 4 5 3 3 4 3 3 2 3 4 5 6 5 5 5 5 4 4 4 3 3 3 2 2 2 2 2 2 2 2 1 1 1 1 1 1 1 1 1 1 1
2 2 2 3 4 4 3 3 3 2 3 3 4 4 5 5 4 5 5 4 4 3 3 3 2 2 2 2 2 2 2 1 1 1 1 1 0 0 0 0 0 0 0 0
1 1 1 2 3 3 3 3 3 3 3 3 4 4 5 6 5 5 4 4 3 3 3 2 2 2 2 2 1 1 1 1 1 0 0 0 0 -0 -0 -0 -0 -0 -0 -1
0 0 1 2 3 2 2 3 3 3 3 3 3 4 5 4 4 4 4 3 3 3 2 2 2 2 1 1 1 1 0 0 0 -0 -0 -0 -0 -0 -0 -1 -1 -1 -1 -1
0 0 0 1 1 1 3 4 4 3 3 3 3 4 4 3 4 4 4 3 3 2 2 2 1 1 1 1 1 0 0 -0 -0 -0 -0 -1 -1 -1 -1 -1 -1 -1 -1 -1
0 -0 0 1 1 2 4 3 3 2 2 3 3 3 3 3 3 3 3 3 2 2 2 1 1 1 1 0 0 -0 -0 -0 -1 -1 -1 -1 -1 -1 -1 -2 -1 -1 -2 -2
-1 -1 -0 1 1 2 3 3 3 2 1 2 2 2 2 2 0 1 2 2 2 1 1 1 1 0 0 -0 -0 -1 -1 -1 -1 -1 -1 -1 -1 -1 -2 -2 -2 -2 -2 -2
-1 -1 -0 0 1 2 3 2 2 1 2 2 3 2 2 1 1 1 1 1 1 1 0 0 -0 -0 -0 -1 -1 -1 -1 -1 -1 -1 -1 -1 -1 -2 -2 -2 -2 -2 -2 -2
-1 -1 -1 -0 0 1 2 1 1 1 2 2 2 2 2 1 1 1 1 0 0 0 -0 -0 -1 -1 -1 -1 -1 -1 -1 -1 -2 -2 -2 -2 -2 -2 -2 -2 -2 -3 -3 -3
0 0 0 1 1 2 2 2 2 2 2 2 2 1 1 1 0 0 -0 -0 -0 -0 -1 -1 -1 -1 -1 -2 -2 -2 -2 -2 -2 -2 -2 -2 -2 -2 -3 -3 -3 -3 -3 -3
0 0 0 -0 1 2 2 2 2 2 1 1 1 1 1 0 -0 -0 -1 -1 -1 -1 -1 -1 -2 -2 -2 -2 -2 -2 -2 -2 -2 -2 -3 -3 -3 -3 -3 -3 -3 -3 -3 -3
1 -1 -1 -1 0 1 2 2 2 1 1 1 1 0 0 -0 -0 -1 -1 -1 -1 -2 -2 -2 -2 -2 -2 -3 -3 -3 -3 -3 -3 -3 -3 -3 -3 -3 -4 -4 -4 -4 -4 -4
0 -0 -1 -0 1 0 1 1 1 1 0 0 0 -0 -0 -1 -1 -1 -1 -2 -2 -2 -2 -3 -3 -3 -3 -3 -3 -3 -3 -3 -3 -3 -3 -3 -4 -4 -4 -4 -4 -4 -4 -4
Wind_Speed
4 3 4 4 5 6 7 7 9 7 3 4 9 11 9 7 6 6 5 5 4 4 3 5 5 4 4 3 3 3 2 2 2 2 2 2 1 1 0 1 1 1 1 1
3 5 5 5 5 6 7 8 8 5 3 5 8 12 10 9 8 7 6 5 4 4 4 4 6 5 5 4 3 3 2 2 2 2 2 2 2 1 1 1 1 0 1 1
4 2 3 5 5 5 6 6 6 6 7 6 7 9 8 6 6 5 5 4 4 4 5 4 5 4 4 4 3 2 2 2 1 1 1 1 1 1 1 1 1 1 0 1
4 3 4 4 4 4 6 3 5 6 5 5 4 6 5 5 6 6 6 5 4 3 3 4 4 4 4 3 3 2 2 2 2 2 2 3 2 2 2 2 2 1 1 1
3 1 3 5 5 4 3 3 5 6 6 6 6 5 6 5 6 6 5 4 3 3 3 4 4 4 4 4 3 3 2 2 2 2 3 3 2 2 1 1 2 2 2 2
4 2 2 2 2 2 3 3 5 4 2 5 7 6 6 3 3 3 3 3 3 2 2 3 4 4 3 3 3 3 3 2 2 2 2 2 3 2 2 1 2 2 2 2
4 5 3 1 1 2 1 1 1 2 4 6 4 4 6 2 1 2 3 2 2 2 2 2 3 3 3 3 3 3 3 2 2 2 2 2 3 3 3 2 2 2 2 1
3 4 5 3 2 2 4 3 3 3 4 3 2 6 4 2 2 3 3 2 2 2 2 2 2 2 2 2 2 3 3 3 2 2 2 2 2 2 2 2 2 2 2 2
3 2 2 2 1 2 3 4 1 1 4 4 5 4 1 3 3 3 3 2 1 2 2 2 2 2 2 2 2 3 2 2 2 2 2 2 2 2 2 2 1 1 1 2
3 3 3 2 2 3 3 1 1 3 3 5 5 5 3 3 3 3 2 1 1 1 1 2 1 1 1 2 2 2 2 2 1 2 1 1 1 1 1 1 2 2 2 2
3 2 2 3 6 6 4 3 3 3 4 3 4 4 0 2 3 3 2 1 1 1 1 1 1 0 1 1 1 1 1 1 1 1 1 0 0 1 1 2 2 2 2 2
1 1 4 4 1 1 4 5 5 4 5 4 4 5 0 2 2 2 2 1 1 1 1 1 0 0 0 0 0 0 0 1 0 0 1 0 0 1 1 2 2 2 2 2
0 2 2 2 1 1 3 4 4 3 3 5 5 6 1 1 2 1 1 0 0 1 1 0 0 1 0 0 0 0 0 0 0 0 0 0 1 1 2 2 2 2 3 3
1 3 6 6 3 2 5 5 5 4 5 6 8 8 6 4 3 2 1 1 1 1 1 1 1 1 1 0 0 0 0 0 0 0 1 1 2 2 2 2 2 2 3 3
0 4 6 9 8 7 9 9 9 10 10 9 9 9 10 7 5 4 2 2 2 2 1 1 1 1 1 0 0 0 0 0 1 1 2 2 2 2 2 2 2 3 3 3
1 3 4 6 8 8 10 12 12 12 12 13 14 14 8 5 3 3 2 3 3 3 2 2 2 2 1 1 1 1 1 1 1 2 2 3 2 3 3 3 3 3 3 3
3 3 3 5 4 5 9 10 11 9 9 9 12 10 5 5 4 4 4 4 4 3 3 2 2 2 2 2 2 1 1 1 1 2 3 3 3 3 3 3 3 3 3 3
5 3 3 4 4 8 7 2 5 7 9 9 8 6 4 4 5 4 3 3 2 2 1 1 2 2 1 1 1 1 1 1 2 3 3 3 3 3 3 3 4 4 3 3
5 5 3 3 6 9 5 2 2 4 7 5 6 6 4 3 4 3 1 1 1 1 1 1 1 1 1 1 1 1 2 2 3 4 4 4 3 3 3 4 4 4 3 3
2 3 4 4 5 7 4 1 0 0 5 2 2 4 3 2 3 3 2 2 2 1 1 1 1 1 1 2 1 2 3 3 3 4 4 3 3 3 3 4 3 3 3 3
3 4 7 7 7 7 3 2 2 2 4 1 2 3 2 3 4 3 3 2 1 1 1 1 1 1 2 2 2 3 3 3 3 3 3 3 2 3 3 3 3 2 2 2
7 6 6 5 7 8 3 3 4 4 2 2 3 3 2 3 3 3 2 2 1 1 1 1 1 2 2 2 1 2 3 3 2 2 2 2 2 2 2 2 2 2 2 2
7 7 5 7 7 3 3 4 3 2 3 3 3 3 3 3 4 3 3 2 2 1 1 1 1 2 3 2 1 3 3 2 1 1 2 2 1 1 1 1 2 1 1 1
5 4 4 6 7 5 5 4 4 3 4 4 3 3 3 4 4 3 3 2 2 2 1 1 1 2 3 2 2 2 2 1 1 1 2 1 1 1 1 1 1 1 1 1
5 4 5 7 7 6 5 4 3 3 3 3 3 3 3 3 4 3 3 3 2 2 2 1 2 3 3 3 3 2 2 1 1 1 1 1 1 1 0 1 1 1 2 2
6 7 7 7 5 4 4 2 2 3 3 3 3 3 3 3 4 3 3 2 2 2 2 2 2 2 3 2 3 2 2 1 1 1 1 1 1 0 1 1 1 2 2 2
Wind_Direction
189 217 228 240 237 259 283 282 282 288 310 272 258 263 257 243 231 231 226 215 209 197 162 146 146 141 129 124 124 135 125 131 130 143 151 147 172 189 151 95 82 83 86 63
213 230 247 270 264 262 276 274 279 296 310 287 275 272 263 244 228 223 216 207 210 196 171 160 153 149 142 137 135 135 136 140 134 150 169 172 171 186 189 138 86 177 149 125
234 260 269 265 266 265 262 260 277 289 307 271 276 279 251 232 216 206 203 198 196 190 178 165 151 145 138 144 150 149 139 128 130 134 138 137 139 166 175 192 206 221 209 150
252 257 263 259 252 254 258 290 293 289 291 278 242 283 262 220 210 213 207 195 197 192 170 155 148 150 154 150 141 130 132 137 153 170 178 179 195 202 203 195 201 200 204 214
247 233 258 250 252 257 258 317 285 274 272 282 245 251 269 236 228 216 200 179 177 165 154 158 159 162 155 146 147 146 154 156 166 185 192 192 199 206 193 180 190 204 210 223
255 252 262 263 277 262 290 283 272 257 253 260 228 218 270 232 229 180 158 144 141 136 134 141 147 143 136 140 148 156 159 169 179 187 187 195 191 194 190 197 207 217 213 217
237 217 183 205 243 208 254 254 305 260 223 243 205 214 247 215 95 135 146 138 134 138 128 127 125 128 134 142 151 164 168 184 188 185 190 212 195 191 198 208 218 229 226 230
262 243 177 185 220 221 224 213 200 243 256 284 239 229 239 143 119 116 129 127 113 127 123 126 137 145 148 156 165 179 181 191 191 192 204 220 205 195 207 216 227 231 233 236
267 249 123 181 268 250 207 220 246 267 280 273 250 238 226 174 158 149 140 131 128 114 111 127 153 161 164 168 182 191 191 195 189 191 204 218 208 198 210 224 227 231 239 259
296 276 223 172 197 256 262 246 166 201 249 265 257 232 232 181 182 149 137 141 137 108 122 138 155 180 184 180 184 181 193 202 187 183 210 228 227 215 216 220 229 228 241 257
283 251 243 192 207 206 191 211 217 227 238 244 272 264 9 137 137 144 152 146 131 126 111 102 105 90 78 77 106 175 188 170 171 185 198 214 262 232 217 225 229 222 226 243
250 250 255 240 228 287 215 204 184 205 246 235 256 266 22 92 78 95 99 95 115 136 133 120 142 359 101 90 111 246 222 166 219 232 217 217 287 289 244 234 247 231 224 235
145 193 273 269 224 252 246 229 208 222 255 240 240 257 203 110 51 71 123 155 191 136 127 197 277 270 233 109 184 253 36 88 356 343 237 230 265 274 274 260 263 243 230 236
301 224 221 235 252 225 250 241 222 217 231 251 242 261 278 287 303 302 269 226 234 243 220 230 246 240 223 205 160 119 108 138 184 206 237 237 254 256 261 265 269 256 240 233
181 249 254 268 275 260 252 247 229 228 233 243 261 271 277 280 281 272 263 251 251 262 255 239 264 255 215 224 353 15 226 247 248 250 247 244 251 258 258 258 254 253 249 245
198 256 284 276 263 260 263 253 240 237 242 251 267 273 268 274 278 278 267 260 256 249 237 238 255 264 236 214 230 275 282 270 264 259 258 259 253 248 249 248 246 250 246 240
190 215 262 272 284 298 266 242 227 227 226 230 249 258 278 288 279 265 262 256 244 241 233 234 259 267 237 216 215 236 261 272 267 264 266 264 255 253 252 249 244 246 244 240
189 202 241 275 295 254 247 235 214 232 248 240 252 274 281 280 290 279 251 232 248 248 252 269 271 276 272 233 212 227 245 252 261 261 263 262 253 251 251 246 244 243 240 237
200 197 233 248 261 267 266 246 205 230 273 256 249 270 296 316 313 297 15 88 279 264 278 284 275 269 268 277 263 250 260 257 260 261 260 257 249 249 251 248 246 239 238 239
195 197 222 240 253 258 258 181 157 101 280 274 247 262 283 336 296 279 346 358 347 357 356 334 334 323 284 273 267 261 261 257 257 265 267 259 253 250 252 250 248 247 241 237
180 205 221 236 250 265 253 174 136 201 256 303 300 269 248 248 256 279 312 333 354 339 333 336 342 310 279 268 257 258 262 257 263 275 278 263 252 253 257 254 244 240 238 234
189 195 209 213 236 254 183 159 202 235 287 307 304 292 276 277 289 298 308 310 317 332 333 334 324 303 303 292 262 267 265 267 275 281 281 269 268 277 280 259 256 243 229 228
203 202 207 213 228 249 192 225 250 291 295 298 302 308 289 279 279 284 289 286 283 296 309 319 303 302 307 297 262 264 274 279 285 284 282 281 283 274 275 262 268 266 240 216
231 207 230 259 263 262 253 258 272 275 273 290 299 294 279 273 274 275 275 280 292 292 290 294 293 294 300 301 285 264 280 285 271 263 282 287 275 288 302 296 280 274 255 229
226 191 229 255 267 276 256 241 259 279 284 286 291 290 281 275 271 267 259 259 269 277 278 277 269 276 287 304 300 292 297 293 270 266 285 289 265 236 298 321 300 270 248 229
220 210 216 242 245 239 267 263 271 279 275 275 290 300 298 274 268 271 263 260 261 269 275 282 283 282 286 294 293 289 286 259 241 266 292 297 276 274 280 296 328 325 280 275
Height
1479 1482 1482 1480 1479 1478 1477 1477 1476 1472 1470 1472 1471 1468 1465 1465 1465 1466 1467 1467 1468 1470 1471 1472 1473 1474 1475 1475 1476 1477 1478 1479 1481 1482 1483 1484 1486 1487 1488 1489 1490 1491 1491 1492
1479 1480 1478 1477 1477 1477 1477 1478 1476 1473 1471 1472 1470 1466 1461 1460 1460 1461 1462 1463 1464 1466 1468 1469 1470 1471 1472 1473 1474 1475 1476 1477 1478 1479 1480 1482 1483 1484 1485 1486 1487 1488 1488 1489
1478 1478 1476 1476 1476 1477 1476 1477 1477 1476 1473 1470 1472 1466 1458 1455 1456 1457 1458 1459 1462 1463 1464 1466 1467 1468 1469 1471 1472 1473 1473 1475 1476 1477 1479 1479 1481 1481 1482 1482 1483 1484 1485 1485
1476 1475 1475 1475 1476 1477 1478 1474 1475 1476 1479 1478 1472 1476 1459 1454 1454 1454 1455 1457 1459 1460 1462 1463 1464 1465 1466 1468 1469 1470 1471 1472 1474 1475 1476 1477 1477 1477 1478 1479 1480 1481 1481 1482
1475 1474 1475 1475 1475 1475 1475 1475 1476 1476 1478 1480 1472 1477 1463 1453 1453 1452 1452 1454 1456 1458 1459 1460 1461 1463 1464 1465 1466 1467 1469 1470 1471 1472 1473 1474 1474 1475 1475 1475 1476 1477 1477 1478
1474 1473 1474 1474 1474 1475 1475 1476 1476 1476 1480 1484 1470 1473 1462 1454 1450 1449 1451 1453 1455 1456 1458 1458 1459 1461 1462 1463 1464 1465 1466 1468 1469 1469 1470 1470 1471 1471 1472 1472 1473 1473 1473 1474
1473 1472 1473 1474 1476 1476 1477 1481 1484 1483 1482 1475 1463 1466 1460 1450 1448 1448 1450 1452 1453 1455 1456 1457 1458 1459 1460 1461 1461 1462 1464 1465 1466 1466 1466 1467 1467 1468 1468 1469 1469 1469 1469 1470
1474 1474 1472 1473 1475 1477 1477 1478 1485 1485 1477 1467 1463 1464 1454 1448 1448 1448 1450 1451 1453 1454 1455 1456 1456 1457 1458 1459 1459 1460 1461 1462 1462 1463 1463 1464 1464 1464 1465 1465 1466 1466 1466 1466
1475 1474 1472 1472 1473 1474 1476 1478 1476 1482 1480 1480 1465 1454 1451 1448 1448 1449 1450 1451 1452 1453 1454 1455 1455 1456 1456 1456 1457 1458 1458 1459 1459 1459 1460 1460 1461 1461 1461 1462 1462 1462 1462 1463
1475 1478 1473 1472 1474 1474 1475 1475 1480 1483 1483 1475 1459 1454 1453 1449 1449 1449 1450 1450 1451 1453 1453 1454 1454 1454 1455 1455 1455 1455 1456 1456 1456 1456 1457 1457 1457 1457 1458 1458 1458 1458 1459 1459
1476 1480 1476 1474 1474 1473 1476 1477 1476 1477 1476 1475 1469 1459 1446 1446 1447 1448 1449 1450 1451 1451 1452 1452 1452 1452 1453 1453 1453 1453 1453 1453 1453 1453 1453 1453 1453 1454 1454 1454 1454 1454 1455 1455
1476 1479 1479 1472 1469 1469 1469 1471 1475 1481 1477 1472 1471 1462 1446 1445 1445 1447 1448 1449 1450 1450 1451 1451 1451 1451 1451 1450 1450 1450 1450 1450 1450 1450 1450 1450 1450 1450 1450 1450 1451 1451 1451 1451
1477 1481 1481 1473 1474 1473 1471 1469 1471 1475 1475 1473 1470 1460 1446 1445 1446 1447 1448 1448 1449 1449 1449 1449 1449 1449 1449 1448 1448 1447 1447 1447 1447 1447 1447 1446 1447 1446 1446 1446 1447 1447 1447 1447
1476 1479 1479 1473 1467 1471 1472 1469 1470 1474 1477 1470 1461 1454 1448 1446 1447 1447 1447 1447 1447 1447 1447 1447 1447 1447 1447 1446 1445 1445 1444 1444 1444 1444 1444 1443 1443 1443 1443 1443 1443 1443 1443 1442
1476 1478 1474 1469 1465 1466 1466 1465 1467 1469 1466 1466 1456 1452 1447 1446 1445 1445 1445 1445 1445 1445 1445 1445 1445 1445 1444 1444 1443 1442 1442 1441 1441 1441 1440 1440 1440 1440 1440 1439 1439 1439 1439 1438
1476 1478 1475 1470 1464 1463 1462 1459 1460 1460 1459 1457 1453 1449 1443 1443 1443 1442 1442 1443 1442 1443 1443 1443 1443 1442 1442 1441 1440 1440 1439 1438 1438 1438 1437 1437 1436 1436 1436 1435 1435 1435 1435 1435
1476 1478 1476 1469 1463 1463 1461 1451 1451 1451 1449 1449 1449 1444 1441 1441 1440 1440 1440 1440 1440 1440 1440 1440 1440 1439 1439 1438 1438 1437 1436 1435 1435 1434 1434 1433 1432 1432 1432 1431 1431 1431 1431 1431
1474 1475 1475 1471 1468 1467 1448 1441 1440 1443 1442 1441 1440 1439 1439 1439 1438 1438 1437 1437 1437 1437 1437 1437 1437 1436 1436 1435 1435 1434 1433 1432 1432 1431 1430 1430 1429 1428 1428 1427 1427 1427 1427 1427
1468 1472 1473 1471 1466 1453 1444 1441 1441 1443 1442 1438 1438 1437 1438 1437 1436 1435 1435 1435 1435 1435 1435 1435 1434 1433 1433 1432 1432 1431 1430 1429 1428 1428 1427 1426 1425 1424 1424 1423 1423 1423 1423 1423
1468 1470 1472 1467 1464 1455 1443 1440 1439 1442 1443 1437 1436 1436 1436 1436 1438 1435 1433 1433 1433 1433 1432 1432 1431 1430 1430 1429 1428 1428 1427 1426 1425 1424 1424 1423 1422 1421 1420 1420 1419 1419 1419 1420
1469 1469 1468 1465 1461 1449 1440 1439 1440 1446 1441 1436 1434 1434 1434 1434 1435 1433 1431 1431 1430 1430 1430 1429 1429 1428 1427 1426 1425 1424 1423 1423 1422 1421 1421 1420 1419 1418 1417 1417 1416 1416 1416 1416
1460 1462 1462 1460 1457 1449 1438 1438 1440 1439 1434 1433 1433 1433 1432 1431 1431 1430 1429 1428 1427 1427 1427 1426 1426 1425 1424 1423 1422 1421 1420 1420 1419 1418 1417 1416 1416 1415 1415 1414 1414 1413 1413 1413
1450 1449 1448 1448 1444 1436 1435 1434 1434 1433 1433 1432 1431 1430 1430 1429 1428 1427 1426 1426 1425 1424 1424 1423 1423 1422 1421 1420 1419 1418 1417 1417 1416 1415 1414 1414 1413 1413 1412 1411 1411 1411 1411 1411
1442 1441 1442 1441 1434 1432 1432 1431 1431 1431 1430 1430 1429 1428 1427 1426 1425 1424 1424 1423 1422 1422 1421 1420 1419 1418 1418 1417 1416 1415 1414 1414 1413 1412 1411 1411 1410 1410 1409 1409 1409 1409 1409 1408
1437 1438 1439 1437 1432 1429 1428 1428 1428 1428 1427 1427 1426 1425 1424 1423 1422 1422 1421 1420 1419 1419 1418 1417 1416 1416 1415 1414 1413 1413 1412 1411 1410 1409 1409 1408 1408 1407 1407 1407 1407 1407 1407 1407
1430 1432 1434 1431 1427 1427 1425 1425 1425 1425 1424 1423 1423 1422 1421 1420 1419 1418 1418 1417 1416 1415 1415 1414 1414 1413 1412 1411 1411 1410 1409 1409 1408 1407 1407 1406 1406 1405 1405 1405 1405 1405 1406 1406